* Astronomy
Members Login
Username
Password
Login
Remember Me
New Member
Lost Account Info?
Main Page
Search
Search
Advanced Search
Links
Blob on twitter
Chat
Chat Room
Search
Newspaper
Wiki
Help
FAQ
More?
AstroForum
NASA TV
Streaming video by Ustream
NASA TV Audio
NASA Media Channel
ISS Live webcam stream
User Details
Star Map
Calendar
Arcade
Recent Posts
Home
->
Astronomy News
->
Solar System
->
Asteroid 2009 OW2
Start A New Topic
Reply
Post Info
TOPIC: Asteroid 2009 OW2
Blobrana
L
Posts: 131433
Date:
Aug 6 10:35 2009
Asteroid 2009 OW2
Permalink
Printer Friendly
Orbital Elements at Epoch 2455020.5 (2009-Jul-08.0) TDB
Reference: E2009P03
(heliocentric ecliptic J2000)
Element
Value
Uncertainty (1-sigma)
Units
e
0.2018853
n/a
a
2.4605108
n/a
AU
q
1.9637698
n/a
AU
i
2.34959
n/a
deg
node
105.07573
n/a
deg
peri
253.65815
n/a
deg
M
315.38379
n/a
deg
t
p
2455195.2135172
(2009-Dec-29.71351721)
n/a
JED
period
1409.7312653
3.86
n/a
n/a
d
yr
n
0.25536782
n/a
deg/d
Q
2.9572518
n/a
AU
Orbit Determination Parameters
# obs. used (total)
15
data-arc span
10 days
first obs. used
2009-07-21
last obs. used
2009-07-31
# oppositions
1
two-body model
T
fit RMS
0.67
data source
MPC:mp1
producer
MPC
Additional Information
T_jup = 3.461
Source
__________________
Page 1 of 1
sorted by
Oldest First
Newest First
Quick Reply
Please log in to post quick replies.
Home
->
Astronomy News
->
Solar System
->
Asteroid 2009 OW2
Subscribe
Jump To:
--- News ---
Stars/galaxy News
Physics News
Comets
Earthquakes
Meetings
Galaxies
Weather
Stars
Missile
Satellite Re-entry
Neptune
Deimos
Venus
Saturn
Asteroids 2012
Meteors 2012
Meteorites 2012
Plutinos
Meteorites 2014
Comets 2014
Solar 2014
May
Historical Calendar
Comets 2015
October
Comets 2016
Asteroids 2018
Solar 2018
Meteors 2018
UFOs 2018
Astronomy News
Meteorite News
Mission News
Cosmology News
Events
Solar System
Earth
Exoplanets
Satellites
Supernovae
Space missions
Volcano
Uranus
Mercury
Pluto
UFOs 2012
Phobos
Meteors 2013
UFOs 2013
Comets 2013
Meteors 2014
Asteroids 2014
UFO 2014
Meteors 2015
November
December
UFOs 2015
April
July
August
Meteorites 2016
UFOs 2016
Asteroids 2016
General news
Asteroids 2017
Meteorites 2017
Comets 2017
Meteors 2017
UFOs 2017
UFOs
Asteroids
Solar
Observatories
Gamma-ray burst
Exhibition
Chemistry
Meteors
Mars
Jupiter
The Moon
Meteorites
Asteroids 2013
Meteorites 2013
Solar 2013
Sun
Solar 2015
Asteroids 2015
September
January
February
Meteorites 2015
March
June
Meteors 2016
Solar 2016
Solar 2017
Comets 2018
Meteorites 2018
--- Dropzone ---
Computers
Software
Cameras
Telescopes
Moon 2018
Observations
Moon 2017
Binoculars
Eyepiece
Moon 2016
App:roved
--- Media ---
Videos
Music
Audio Visual
YouTube
Art gallery
KMZ
Escape pod
Books
--- Coffee house ---
The Bazaar
Off Topic
All queries go here
Trash
Links
People
--- Agora ---
Blog
Forum help
Banned
Feedback
Test
Create your own FREE Forum
Report Abuse